Location: NCO
(38.4404°N, 77.1340°W)
Time: 10:35:13
(UTC-04:00)

Envisat - Visible Passes

Search period start: 28 May 2017 00:00
Search period end: 07 June 2017 00:00
Orbit: 764 x 766 km, 98.2° (Epoch: 27 May)

Date Brightness Start Highest point End Pass type
(mag) Time Alt. Az. Time Alt. Az. Time Alt. Az.
28 May 3.0 21:05:13 10° SSE 21:10:17 80° ENE 21:15:23 10° N visible
28 May 5.8 22:49:15 10° W 22:49:51 10° W 22:50:26 10° W visible
29 May 4.9 22:08:40 10° SSW 22:12:47 25° W 22:16:55 10° NW visible
30 May 3.6 21:30:56 10° S 21:35:54 57° W 21:40:55 10° NNW visible
31 May 3.1 20:54:14 10° SSE 20:59:13 63° ENE 21:04:15 10° N visible
31 May 5.5 22:36:09 10° WSW 22:38:38 14° W 22:41:09 10° WNW visible
01 Jun 4.6 21:57:09 10° SSW 22:01:38 31° W 22:06:08 10° NW visible
02 Jun 3.2 21:19:45 10° S 21:24:49 73° WSW 21:29:54 10° NNW visible
03 Jun 5.4 22:24:06 10° SW 22:27:27 18° W 22:30:49 10° NW visible
04 Jun 4.2 21:45:45 10° SSW 21:50:29 40° W 21:55:16 10° NNW visible
05 Jun 3.0 21:08:40 10° SSE 21:13:44 88° ENE 21:18:51 10° NNW visible
06 Jun 5.1 22:12:21 10° SW 22:16:16 22° W 22:20:14 10° NW visible
